Home   Weather   Sandpoint   Past weeks
Flag for USA

Past Weather in Sandpoint, Idaho, USA — Yesterday and Last 2 Weeks

Now
48 °F

Passing clouds.


Feels Like: 48 °F
Forecast: 66 / 41 °F
Wind: No wind

Location: Sandpoint Airport

Current Time: Sep 18, 2019 at 9:31:47 pm

Latest Report: Sep 18, 2019 at 8:55 pm


Visibility: 7 mi

Pressure: 29.94 "Hg (27.72 "Hg at 636m altitude)

Humidity: 100%

Dew Point: 48 °F

Location of SandpointLocation

Past Weather in Sandpoint — Graph

°F

Sandpoint Temperature Yesterday

Maximum temperature yesterday: 63 °F (at 4:35 pm)
Minimum temperature yesterday: 52 °F (at 1:35 am)
Average temperature yesterday: 55 °F

High & Low Weather Summary for the Past Weeks

 TemperatureHumidityPressure
High81 °F (Sep 4, 3:15 pm)100% (Sep 18, 7:35 pm)30.15 "Hg (Sep 18, 7:35 pm)
Low43 °F (Sep 5, 6:15 am)26% (Sep 4, 3:15 pm)29.78 "Hg (Sep 16, 2:35 pm)
Average57 °F66%29.94 "Hg
* Reported Sep 3 8:15 pm — Sep 18 8:35 pm, Sandpoint. Weather by CustomWeather, © 2019

Note: Actual official high and low records may vary slightly from our data, if they occured in-between our weather recording intervals... More about our weather records

Advertising

Sandpoint Weather History for the Previous 24 Hours

Scroll right to see more
 ConditionsComfort  
Time TempWeatherWind HumidityBarometerVisibility
8:35 pm
Wed, Sep 18
50 °FClear.No wind100%29.94 "Hg10 mi
8:15 pm50 °FPassing clouds.No wind100%29.94 "Hg10 mi
7:55 pm52 °FPassing clouds.5 mph94%29.94 "Hg10 mi
7:35 pm52 °FPassing clouds.5 mph100%29.94 "Hg10 mi
7:15 pm52 °FPartly cloudy.5 mph94%29.94 "Hg10 mi
6:35 pm54 °FDrizzle. Cloudy.No wind94%29.93 "Hg10 mi
6:15 pm54 °FRain. More clouds than sun.No wind94%29.93 "Hg10 mi
5:55 pm54 °FRain. More clouds than sun.No wind94%29.92 "Hg10 mi
5:15 pm54 °FRain. More clouds than sun.No wind94%29.92 "Hg7 mi
4:55 pm55 °FRain. Mostly cloudy.No wind77%29.92 "Hg10 mi
4:35 pm57 °FMostly cloudy.3 mph63%29.91 "Hg10 mi
3:55 pm59 °FOvercast.5 mph63%29.90 "Hg10 mi
3:35 pm59 °FOvercast.6 mph63%29.90 "Hg10 mi
3:15 pm59 °FOvercast.6 mph63%29.90 "Hg10 mi
2:55 pm57 °FOvercast.5 mph67%29.90 "Hg10 mi
2:35 pm55 °FOvercast.6 mph72%29.90 "Hg10 mi
2:15 pm55 °FOvercast.7 mph72%29.90 "Hg10 mi
1:55 pm57 °FBroken clouds.5 mph67%29.90 "Hg10 mi
1:35 pm55 °FCloudy.5 mph72%29.90 "Hg10 mi
1:15 pm55 °FMostly cloudy.8 mph72%29.90 "Hg10 mi
12:55 pm55 °FMostly cloudy.9 mph72%29.90 "Hg10 mi
12:35 pm54 °FMostly cloudy.7 mph77%29.90 "Hg10 mi
12:15 pm54 °FOvercast.8 mph77%29.90 "Hg10 mi
11:55 am54 °FOvercast.9 mph82%29.90 "Hg10 mi
11:35 am54 °FOvercast.8 mph77%29.90 "Hg10 mi
11:15 am54 °FMostly cloudy.12 mph77%29.89 "Hg10 mi
10:55 am52 °FOvercast.10 mph82%29.89 "Hg10 mi
10:35 am52 °FLight rain. Overcast.10 mph82%29.89 "Hg10 mi
10:15 am52 °FLight rain. More clouds than sun.9 mph82%29.88 "Hg10 mi
9:55 am52 °FLight rain. Overcast.8 mph82%29.88 "Hg10 mi
9:35 am52 °FMore clouds than sun.9 mph82%29.89 "Hg10 mi
9:15 am52 °FOvercast.10 mph82%29.88 "Hg10 mi
8:55 am50 °FMore clouds than sun.12 mph88%29.88 "Hg10 mi
8:35 am50 °FOvercast.10 mph88%29.88 "Hg10 mi
7:55 am50 °FOvercast.10 mph88%29.87 "Hg10 mi
7:35 am50 °FLight rain. Overcast.7 mph88%29.87 "Hg10 mi
7:15 am50 °FDrizzle. Mostly cloudy.5 mph88%29.88 "Hg10 mi
6:35 am52 °FLight rain. Overcast.No wind77%29.88 "Hg10 mi
6:15 am52 °FMostly cloudy.10 mph77%29.86 "Hg10 mi
5:55 am52 °FMostly cloudy.9 mph77%29.85 "Hg10 mi
5:35 am52 °FOvercast.10 mph77%29.84 "Hg10 mi
4:55 am52 °FMostly cloudy.10 mph72%29.86 "Hg10 mi
4:35 am52 °FOvercast.9 mph77%29.86 "Hg10 mi
4:15 am52 °FMostly cloudy.10 mph77%29.85 "Hg10 mi
3:55 am52 °FMostly cloudy.12 mph77%29.85 "Hg10 mi
3:35 am52 °FMostly cloudy.10 mph72%29.85 "Hg10 mi
3:15 am52 °FMostly cloudy.10 mph72%29.85 "Hg10 mi
2:55 am52 °FMostly cloudy.10 mph77%29.85 "Hg10 mi
2:35 am52 °FLight rain. Mostly cloudy.12 mph72%29.84 "Hg10 mi
2:15 am54 °FOvercast.9 mph67%29.85 "Hg10 mi
1:55 am54 °FMostly cloudy.6 mph67%29.85 "Hg10 mi
1:35 am52 °FOvercast.3 mph77%29.86 "Hg10 mi
12:55 am54 °FOvercast.No wind67%29.86 "Hg10 mi
12:35 am52 °FOvercast.No wind72%29.87 "Hg10 mi
12:15 am52 °FOvercast.3 mph77%29.86 "Hg10 mi
11:55 pm
Tue, Sep 17
54 °FOvercast.3 mph67%29.86 "Hg10 mi
11:35 pm54 °FLight rain. Mostly cloudy.8 mph67%29.86 "Hg10 mi
10:55 pm54 °FOvercast.7 mph67%29.86 "Hg10 mi
10:35 pm54 °FOvercast.8 mph67%29.86 "Hg10 mi
10:15 pm54 °FMostly cloudy.10 mph67%29.86 "Hg10 mi
9:55 pm54 °FMostly cloudy.6 mph67%29.86 "Hg10 mi
9:35 pm55 °FOvercast.6 mph63%29.87 "Hg10 mi
9:15 pm55 °FOvercast.9 mph59%29.87 "Hg10 mi
Weather by CustomWeather, © 2019

See weather overview